Location: Avon Lake
(41.5219°N, 93.5010°W)
Time: 15:10:42
(UTC+00:00)

BlueWalker 3 - Pass Details

Date: 06 December 2022
Orbit: 499 x 517 km, 53.2° (Epoch: 01 February)

Event Time Altitude Azimuth Distance (km) Brightness Sun altitude
Rises 00:42:22 0° 312° (NW) 2,625 6.1 -21.5°
Reaches altitude 10° 00:44:51 10° 325° (NW) 1,733 4.9 -21.9°
Enters shadow 00:46:46 21° 350° (N) 1,193 3.8 -22.3°
